Location: Bidwell Hollow
(37.7387°N, 90.1707°W)
Time: 00:54:48
(UTC+00:00)

Vanguard 1 - All Passes

Search period start: 14 May 2026 00:00
Search period end: 24 May 2026 00:00
Orbit: 654 x 3817 km, 34.2° (Epoch: 13 May)

Date Brightness Start Highest point End Pass type
(mag) Time Alt. Az. Time Alt. Az. Time Alt. Az.
14 May - 01:59:15 10° W 02:12:30 72° SSW 02:34:39 10° ESE visible
14 May - 04:21:09 10° W 04:37:34 47° SSW 04:59:01 10° SSE visible
14 May - 06:49:01 10° W 07:01:46 19° SW 07:15:07 10° S visible
14 May - 19:26:34 10° SE 19:27:55 11° SE 19:29:23 10° ESE daylight
14 May - 21:39:41 10° SW 21:46:31 50° SSE 21:58:52 10° E daylight
14 May - 23:58:22 10° W 00:08:08 77° S 00:26:37 10° E daylight
15 May - 02:18:36 10° W 02:32:09 66° SSW 02:54:14 10° ESE visible
15 May - 04:41:02 10° W 04:57:02 39° SW 05:17:19 10° SSE visible
15 May - 07:13:16 10° WSW 07:20:56 13° SW 07:28:50 10° SSW visible
15 May - 19:42:41 10° S 19:46:32 17° SE 19:51:34 10° E daylight
15 May - 21:58:34 10° SW 22:05:38 59° SSE 22:18:48 10° E daylight
16 May - 00:17:36 10° W 00:27:41 77° S 00:46:37 10° E daylight
16 May - 02:38:01 10° W 02:51:46 60° SSW 03:13:34 10° SE visible
16 May - 05:01:14 10° W 05:16:26 32° SW 05:35:08 10° SSE visible
16 May - 20:00:30 10° SSW 20:05:13 25° SE 20:12:07 10° E daylight
16 May - 22:17:35 10° WSW 22:24:52 67° SSE 22:38:44 10° E daylight
17 May - 00:36:52 10° W 00:47:15 74° S 01:06:32 10° ESE daylight
17 May - 02:57:31 10° W 03:11:21 52° SSW 03:32:38 10° SE visible
17 May - 05:21:57 10° W 05:35:48 25° SW 05:52:17 10° S visible
17 May - 20:18:50 10° SSW 20:24:02 33° SE 20:32:13 10° E daylight
17 May - 22:36:40 10° WSW 22:44:13 72° S 22:58:40 10° E daylight
18 May - 00:56:08 10° W 01:06:49 70° SSW 01:26:20 10° ESE daylight
18 May - 03:17:07 10° W 03:30:53 45° SSW 03:51:22 10° SE visible
18 May - 05:43:36 10° WSW 05:55:11 18° SW 06:08:22 10° S visible
18 May - 20:37:29 10° SW 20:42:58 43° SSE 20:52:08 10° E daylight
18 May - 22:55:50 10° W 23:03:37 74° S 23:18:36 10° E daylight
19 May - 01:15:26 10° W 01:26:22 64° SSW 01:45:56 10° ESE visible
19 May - 03:36:55 10° W 03:50:25 37° SSW 04:09:41 10° SSE visible
19 May - 06:07:40 10° WSW 06:14:35 12° SW 06:22:01 10° SSW visible
19 May - 18:41:12 10° SSE 18:43:16 12° SE 18:45:35 10° ESE daylight
19 May - 20:56:20 10° SW 21:02:02 53° SSE 21:11:58 10° E daylight
19 May - 23:15:01 10° W 23:23:03 74° S 23:38:31 10° E daylight
20 May - 01:34:47 10° W 01:45:54 57° SSW 02:05:19 10° SE visible
20 May - 03:57:03 10° W 04:09:55 30° SW 04:27:29 10° SSE visible
20 May - 18:58:30 10° S 19:02:01 19° SE 19:06:31 10° E daylight
20 May - 21:15:19 10° WSW 21:21:12 62° SSE 21:31:46 10° E daylight
20 May - 23:34:13 10° W 23:42:31 71° S 23:58:23 10° ESE daylight
21 May - 01:54:12 10° W 02:05:27 49° SSW 02:24:24 10° SE visible
21 May - 04:17:42 10° W 04:29:26 23° SW 04:44:36 10° S visible
21 May - 19:16:43 10° SSW 19:20:52 27° SSE 19:26:38 10° E daylight
21 May - 21:34:23 10° WSW 21:40:28 68° S 21:51:34 10° E daylight
21 May - 23:53:27 10° W 00:01:58 66° S 00:18:07 10° ESE daylight
22 May - 02:13:46 10° W 02:25:00 41° SSW 02:43:08 10° SE visible
22 May - 04:39:23 10° WSW 04:48:58 17° SW 05:00:33 10° S visible
22 May - 19:35:18 10° SW 19:39:49 36° SSE 19:46:28 10° E daylight
22 May - 21:53:31 10° W 21:59:47 71° S 22:11:22 10° E daylight
23 May - 00:12:42 10° W 00:21:25 60° SSW 00:37:42 10° ESE daylight
23 May - 02:33:32 10° W 02:44:33 34° SSW 03:01:27 10° SSE visible
23 May - 05:04:12 10° SW 05:08:33 11° SW 05:13:14 10° SSW visible
23 May - 19:54:07 10° SW 19:58:52 47° SSE 20:06:11 10° E daylight
23 May - 22:12:40 10° W 22:19:08 71° S 22:31:09 10° ESE daylight
